When you browse on this site, cookies collect data to enhance your experience and personalize the content and advertising you see.
Visit our Privacy Policy to learn more. By continuing to use the site, you agree to this use of cookies and data.
  • In Hungary
  • List of Countries
  • For 7 days
  • Water Temperature
  • Satellite Maps
  • Weather Map
  • News
  • Weather Widgets
  • user-avatar
    Login

    Hourly Weather Battipaglia

    Today, 12 December, Wednesday

    Time Temperature Precipitation Wind Pressure Humidity
    00:00 +6°C° 0 mm 2 mps 757 mmHg 67%
    01:00 +6°C° 0 mm 2 mps 757 mmHg 68%
    02:00 +6°C° 0 mm 2 mps 757 mmHg 68%
    03:00 +6°C° 0 mm 2 mps 757 mmHg 69%
    04:00 +6°C° 0 mm 2 mps 757 mmHg 69%
    05:00 +5°C° 0 mm 2 mps 757 mmHg 68%
    06:00 +5°C° 0 mm 2 mps 757 mmHg 67%
    07:00 +5°C° 0 mm 2 mps 757 mmHg 67%
    08:00 +7°C° 0 mm 2 mps 757 mmHg 61%
    09:00 +8°C° 0 mm 2 mps 757 mmHg 54%
    10:00 +10°C° 0 mm 2 mps 757 mmHg 48%
    11:00 +12°C° 0 mm 2 mps 757 mmHg 44%
    12:00 +12°C° 0 mm 2 mps 757 mmHg 40%
    13:00 +13°C° 0 mm 1 mps 757 mmHg 36%
    14:00 +12°C° 0 mm 2 mps 757 mmHg 39%
    15:00 +12°C° 0 mm 2 mps 756 mmHg 43%
    16:00 +10°C° 0 mm 2 mps 756 mmHg 46%
    17:00 +9°C° 0 mm 2 mps 756 mmHg 48%
    18:00 +9°C° 0 mm 2 mps 756 mmHg 50%
    19:00 +8°C° 0 mm 2 mps 756 mmHg 52%
    20:00 +8°C° 0 mm 2 mps 756 mmHg 53%
    21:00 +8°C° 0 mm 3 mps 756 mmHg 55%
    22:00 +8°C° 0 mm 3 mps 756 mmHg 56%
    23:00 +8°C° 0 mm 3 mps 756 mmHg 57%

    Tomorrow, 13 December, Thursday

    Time Temperature Precipitation Wind Pressure Humidity
    00:00 +7°C° 0 mm 3 mps 756 mmHg 59%
    01:00 +7°C° 0 mm 3 mps 755 mmHg 60%
    02:00 +7°C° 0 mm 3 mps 755 mmHg 62%
    03:00 +7°C° 0 mm 3 mps 754 mmHg 63%
    04:00 +7°C° 0 mm 3 mps 754 mmHg 65%
    05:00 +7°C° 0.1 mm 3 mps 754 mmHg 66%
    06:00 +8°C° 0.1 mm 3 mps 753 mmHg 67%
    07:00 +8°C° 0.1 mm 3 mps 753 mmHg 68%
    08:00 +9°C° 0.1 mm 3 mps 753 mmHg 67%
    09:00 +10°C° 0.1 mm 3 mps 753 mmHg 65%
    10:00 +11°C° 0.1 mm 3 mps 753 mmHg 63%
    11:00 +12°C° 0.2 mm 3 mps 752 mmHg 65%
    12:00 +12°C° 0.2 mm 3 mps 752 mmHg 67%
    13:00 +13°C° 0.2 mm 3 mps 752 mmHg 69%
    14:00 +13°C° 0.2 mm 3 mps 751 mmHg 73%
    15:00 +12°C° 0.2 mm 3 mps 751 mmHg 76%
    16:00 +12°C° 0.2 mm 3 mps 751 mmHg 79%
    17:00 +12°C° 0.1 mm 2 mps 751 mmHg 82%
    18:00 +12°C° 0.1 mm 2 mps 751 mmHg 85%
    19:00 +10°C° 0.1 mm 2 mps 751 mmHg 87%
    20:00 +10°C° 0 mm 2 mps 751 mmHg 88%
    21:00 +10°C° 0 mm 2 mps 752 mmHg 89%
    22:00 +10°C° 0 mm 2 mps 752 mmHg 89%
    23:00 +10°C° 0.2 mm 2 mps 752 mmHg 90%

    Day after tomorrow, 14 December, Friday

    Time Temperature Precipitation Wind Pressure Humidity
    00:00 +10°C° 0.2 mm 3 mps 751 mmHg 91%
    01:00 +10°C° 0.2 mm 3 mps 751 mmHg 91%
    02:00 +10°C° 0.7 mm 3 mps 751 mmHg 90%
    03:00 +11°C° 0.7 mm 3 mps 751 mmHg 90%
    04:00 +11°C° 0.7 mm 4 mps 750 mmHg 89%
    05:00 +11°C° 0.9 mm 3 mps 750 mmHg 89%
    06:00 +10°C° 0.9 mm 3 mps 750 mmHg 89%
    07:00 +10°C° 0.9 mm 3 mps 750 mmHg 89%
    08:00 +11°C° 0 mm 3 mps 751 mmHg 85%
    09:00 +12°C° 0 mm 3 mps 751 mmHg 81%
    10:00 +13°C° 0 mm 3 mps 751 mmHg 76%
    11:00 +14°C° 0 mm 3 mps 750 mmHg 71%
    12:00 +16°C° 0 mm 3 mps 750 mmHg 66%
    13:00 +17°C° 0 mm 3 mps 749 mmHg 60%
    14:00 +16°C° 0 mm 3 mps 749 mmHg 63%
    15:00 +16°C° 0 mm 3 mps 749 mmHg 65%
    16:00 +14°C° 0 mm 3 mps 749 mmHg 68%
    17:00 +13°C° 0 mm 3 mps 750 mmHg 71%
    18:00 +14°C° 0 mm 2 mps 750 mmHg 74%
    19:00 +13°C° 0 mm 2 mps 750 mmHg 77%
    20:00 +12°C° 0 mm 3 mps 750 mmHg 78%
    21:00 +12°C° 0 mm 3 mps 751 mmHg 80%
    22:00 +11°C° 0 mm 3 mps 751 mmHg 81%
    23:00 +11°C° 0 mm 3 mps 751 mmHg 83%

    15 December, Saturday

    Time Temperature Precipitation Wind Pressure Humidity
    00:00 +11°C° 0 mm 3 mps 751 mmHg 84%
    01:00 +11°C° 0 mm 3 mps 751 mmHg 85%
    02:00 +11°C° 0 mm 4 mps 751 mmHg 85%
    03:00 +11°C° 0 mm 4 mps 750 mmHg 85%
    04:00 +11°C° 0 mm 4 mps 750 mmHg 86%
    05:00 +11°C° 0 mm 4 mps 751 mmHg 85%
    06:00 +11°C° 0 mm 4 mps 751 mmHg 84%
    07:00 +11°C° 0 mm 4 mps 751 mmHg 84%
    08:00 +11°C° 0 mm 4 mps 751 mmHg 81%
    09:00 +11°C° 0 mm 4 mps 752 mmHg 78%
    10:00 +12°C° 0 mm 4 mps 752 mmHg 75%
    11:00 +12°C° 0.1 mm 3 mps 752 mmHg 74%
    12:00 +12°C° 0.1 mm 3 mps 752 mmHg 73%
    13:00 +12°C° 0.1 mm 3 mps 752 mmHg 72%
    14:00 +12°C° 0.1 mm 3 mps 752 mmHg 73%
    15:00 +11°C° 0.1 mm 3 mps 752 mmHg 75%
    16:00 +10°C° 0.1 mm 3 mps 753 mmHg 76%
    17:00 +10°C° 0 mm 3 mps 753 mmHg 77%
    18:00 +8°C° 0 mm 4 mps 753 mmHg 77%
    19:00 +8°C° 0 mm 4 mps 753 mmHg 77%
    20:00 +7°C° 0 mm 4 mps 754 mmHg 76%
    21:00 +7°C° 0 mm 4 mps 754 mmHg 74%
    22:00 +7°C° 0 mm 4 mps 754 mmHg 73%
    23:00 +7°C° 0 mm 3 mps 754 mmHg 72%

    16 December, Sunday

    Time Temperature Precipitation Wind Pressure Humidity
    00:00 +5°C° 0 mm 3 mps 755 mmHg 71%
    01:00 +5°C° 0 mm 3 mps 755 mmHg 70%
    02:00 +5°C° 0 mm 3 mps 755 mmHg 71%
    03:00 +4°C° 0 mm 3 mps 755 mmHg 71%
    04:00 +4°C° 0 mm 3 mps 755 mmHg 72%
    05:00 +4°C° 0 mm 3 mps 755 mmHg 73%
    06:00 +4°C° 0 mm 3 mps 756 mmHg 74%
    07:00 +4°C° 0 mm 3 mps 756 mmHg 74%
    08:00 +5°C° 0 mm 3 mps 756 mmHg 69%
    09:00 +7°C° 0 mm 2 mps 757 mmHg 64%
    10:00 +9°C° 0 mm 2 mps 757 mmHg 58%
    11:00 +9°C° 0 mm 2 mps 757 mmHg 54%
    12:00 +11°C° 0 mm 1 mps 757 mmHg 49%
    13:00 +12°C° 0 mm 1 mps 757 mmHg 45%
    14:00 +12°C° 0 mm 1 mps 757 mmHg 47%
    15:00 +11°C° 0 mm 1 mps 757 mmHg 49%
    16:00 +11°C° 0 mm 1 mps 757 mmHg 51%
    17:00 +10°C° 0 mm 1 mps 757 mmHg 54%
    18:00 +9°C° 0 mm 1 mps 758 mmHg 56%
    19:00 +8°C° 0 mm 1 mps 758 mmHg 58%
    20:00 +8°C° 0 mm 1 mps 758 mmHg 60%
    21:00 +8°C° 0 mm 1 mps 758 mmHg 61%
    22:00 +8°C° 0 mm 1 mps 758 mmHg 63%
    23:00 +7°C° 0 mm 2 mps 758 mmHg 65%

    17 December, Monday

    Time Temperature Precipitation Wind Pressure Humidity
    00:00 +7°C° 0 mm 2 mps 758 mmHg 67%
    01:00 +7°C° 0 mm 2 mps 758 mmHg 69%
    02:00 +7°C° 0 mm 2 mps 758 mmHg 71%
    03:00 +8°C° 0 mm 2 mps 757 mmHg 73%
    04:00 +8°C° 0 mm 2 mps 757 mmHg 75%
    05:00 +8°C° 0 mm 2 mps 757 mmHg 76%
    06:00 +8°C° 0 mm 3 mps 757 mmHg 77%
    07:00 +8°C° 0 mm 3 mps 757 mmHg 77%
    08:00 +9°C° 0.1 mm 3 mps 757 mmHg 76%
    09:00 +10°C° 0.1 mm 3 mps 757 mmHg 76%
    10:00 +11°C° 0.1 mm 3 mps 757 mmHg 75%
    11:00 +12°C° 0.2 mm 3 mps 756 mmHg 76%
    12:00 +12°C° 0.2 mm 3 mps 756 mmHg 78%
    13:00 +13°C° 0.2 mm 3 mps 755 mmHg 79%
    14:00 +13°C° 0.2 mm 3 mps 755 mmHg 82%
    15:00 +13°C° 0.2 mm 3 mps 755 mmHg 85%
    16:00 +12°C° 0.2 mm 3 mps 754 mmHg 88%
    17:00 +12°C° 0.4 mm 3 mps 755 mmHg 88%
    18:00 +12°C° 0.4 mm 4 mps 755 mmHg 89%
    19:00 +12°C° 0.4 mm 4 mps 755 mmHg 89%
    20:00 +11°C° 0.3 mm 4 mps 755 mmHg 89%
    21:00 +11°C° 0.3 mm 4 mps 755 mmHg 89%
    22:00 +10°C° 0.3 mm 4 mps 755 mmHg 90%
    23:00 +10°C° 0.1 mm 4 mps 755 mmHg 90%
    Show more